Hourly Weather Aalen

Today, 1 March, Monday

Time Temperature Precipitation Wind Pressure Humidity
00:00 +1°C° 0 mm 2 mps 733 mmHg 81%
01:00 -1°C° 0 mm 2 mps 733 mmHg 81%
02:00 -1°C° 0 mm 2 mps 733 mmHg 81%
03:00 -1°C° 0 mm 2 mps 732 mmHg 81%
04:00 +1°C° 0 mm 1 mps 732 mmHg 82%
05:00 -1°C° 0 mm 2 mps 732 mmHg 81%
06:00 -1°C° 0 mm 2 mps 732 mmHg 81%
07:00 -1°C° 0 mm 2 mps 733 mmHg 81%
08:00 +2°C° 0 mm 2 mps 733 mmHg 74%
09:00 +2°C° 0 mm 3 mps 733 mmHg 67%
10:00 +4°C° 0 mm 3 mps 733 mmHg 61%
11:00 +5°C° 0 mm 3 mps 733 mmHg 58%
12:00 +7°C° 0 mm 4 mps 732 mmHg 56%
13:00 +8°C° 0 mm 4 mps 732 mmHg 54%
14:00 +8°C° 0 mm 4 mps 732 mmHg 56%
15:00 +8°C° 0 mm 4 mps 732 mmHg 58%
16:00 +8°C° 0 mm 4 mps 731 mmHg 60%
17:00 +8°C° 0 mm 3 mps 731 mmHg 67%
18:00 +5°C° 0 mm 3 mps 731 mmHg 73%
19:00 +4°C° 0 mm 2 mps 732 mmHg 79%
20:00 +4°C° 0 mm 2 mps 732 mmHg 82%
21:00 +3°C° 0 mm 2 mps 732 mmHg 84%
22:00 +3°C° 0 mm 2 mps 732 mmHg 86%
23:00 +2°C° 0 mm 2 mps 732 mmHg 88%

Tomorrow, 2 March, Tuesday

Time Temperature Precipitation Wind Pressure Humidity
00:00 +2°C° 0 mm 2 mps 732 mmHg 89%
01:00 +2°C° 0 mm 2 mps 732 mmHg 91%
02:00 +1°C° 0 mm 2 mps 732 mmHg 92%
03:00 +1°C° 0 mm 2 mps 732 mmHg 92%
04:00 +1°C° 0 mm 2 mps 731 mmHg 93%
05:00 -1°C° 0 mm 2 mps 732 mmHg 93%
06:00 -1°C° 0 mm 2 mps 732 mmHg 94%
07:00 +1°C° 0 mm 1 mps 732 mmHg 94%
08:00 +2°C° 0 mm 2 mps 732 mmHg 88%
09:00 +4°C° 0 mm 2 mps 732 mmHg 82%
10:00 +5°C° 0 mm 2 mps 732 mmHg 76%
11:00 +7°C° 0 mm 2 mps 732 mmHg 70%
12:00 +10°C° 0 mm 1 mps 732 mmHg 65%
13:00 +11°C° 0 mm 1 mps 732 mmHg 59%
14:00 +12°C° 0 mm 1 mps 732 mmHg 59%
15:00 +12°C° 0 mm 1 mps 732 mmHg 58%
16:00 +12°C° 0 mm 1 mps 732 mmHg 58%
17:00 +10°C° 0 mm 1 mps 732 mmHg 65%
18:00 +8°C° 0 mm 1 mps 732 mmHg 72%
19:00 +6°C° 0 mm 1 mps 732 mmHg 79%
20:00 +6°C° 0 mm 1 mps 732 mmHg 80%
21:00 +6°C° 0 mm 1 mps 732 mmHg 81%
22:00 +5°C° 0 mm 1 mps 732 mmHg 82%
23:00 +5°C° 0 mm 1 mps 732 mmHg 82%

Day after tomorrow, 3 March, Wednesday

Time Temperature Precipitation Wind Pressure Humidity
00:00 +4°C° 0 mm 1 mps 732 mmHg 82%
01:00 +4°C° 0 mm 1 mps 732 mmHg 81%
02:00 +4°C° 0 mm 1 mps 732 mmHg 81%
03:00 +4°C° 0 mm 1 mps 732 mmHg 80%
04:00 +3°C° 0 mm 1 mps 731 mmHg 80%
05:00 +3°C° 0 mm 1 mps 731 mmHg 79%
06:00 +3°C° 0 mm 1 mps 731 mmHg 78%
07:00 +3°C° 0 mm 1 mps 731 mmHg 77%
08:00 +5°C° 0 mm 1 mps 731 mmHg 71%
09:00 +7°C° 0 mm 1 mps 731 mmHg 64%
10:00 +9°C° 0 mm 1 mps 731 mmHg 58%
11:00 +11°C° 0 mm 1 mps 731 mmHg 54%
12:00 +13°C° 0 mm 1 mps 731 mmHg 50%
13:00 +14°C° 0 mm 1 mps 731 mmHg 46%
14:00 +13°C° 0 mm 0 mps 730 mmHg 47%
15:00 +13°C° 0 mm 0 mps 729 mmHg 48%
16:00 +13°C° 0 mm 0 mps 729 mmHg 49%
17:00 +11°C° 0 mm 0 mps 729 mmHg 55%
18:00 +9°C° 0 mm 0 mps 728 mmHg 61%
19:00 +7°C° 0 mm 0 mps 728 mmHg 67%
20:00 +7°C° 0 mm 0 mps 728 mmHg 67%
21:00 +8°C° 0 mm 1 mps 728 mmHg 68%
22:00 +7°C° 0 mm 1 mps 728 mmHg 69%
23:00 +7°C° 0 mm 1 mps 727 mmHg 70%

4 March, Thursday

Time Temperature Precipitation Wind Pressure Humidity
00:00 +6°C° 0 mm 1 mps 727 mmHg 71%
01:00 +6°C° 0 mm 1 mps 726 mmHg 72%
02:00 +6°C° 0 mm 1 mps 726 mmHg 73%
03:00 +6°C° 0 mm 1 mps 726 mmHg 75%
04:00 +6°C° 0 mm 1 mps 725 mmHg 76%
05:00 +6°C° 0 mm 1 mps 725 mmHg 77%
06:00 +5°C° 0 mm 1 mps 725 mmHg 78%
07:00 +5°C° 0 mm 1 mps 724 mmHg 79%
08:00 +7°C° 0 mm 1 mps 724 mmHg 75%
09:00 +7°C° 0 mm 2 mps 724 mmHg 72%
10:00 +9°C° 0 mm 2 mps 723 mmHg 68%
11:00 +9°C° 0 mm 2 mps 723 mmHg 68%
12:00 +10°C° 0 mm 2 mps 723 mmHg 67%
13:00 +11°C° 0 mm 3 mps 722 mmHg 67%
14:00 +10°C° 0.6 mm 2 mps 722 mmHg 75%
15:00 +9°C° 0.6 mm 2 mps 721 mmHg 83%
16:00 +8°C° 0.6 mm 2 mps 720 mmHg 90%
17:00 +7°C° 0.6 mm 2 mps 720 mmHg 92%
18:00 +7°C° 0.6 mm 2 mps 720 mmHg 93%
19:00 +7°C° 0.6 mm 2 mps 720 mmHg 94%
20:00 +7°C° 0.1 mm 2 mps 720 mmHg 94%
21:00 +5°C° 0.1 mm 3 mps 720 mmHg 93%
22:00 +5°C° 0.1 mm 3 mps 720 mmHg 93%
23:00 +5°C° 0.1 mm 3 mps 720 mmHg 93%

5 March, Friday

Time Temperature Precipitation Wind Pressure Humidity
00:00 +5°C° 0.1 mm 4 mps 720 mmHg 92%
01:00 +4°C° 0.1 mm 4 mps 719 mmHg 92%
02:00 +3°C° 0.3 mm 5 mps 720 mmHg 93%
03:00 +3°C° 0.3 mm 5 mps 720 mmHg 93%
04:00 +3°C° 0.3 mm 5 mps 720 mmHg 94%
05:00 +2°C° 0.3 mm 5 mps 720 mmHg 94%
06:00 +3°C° 0.3 mm 4 mps 720 mmHg 94%
07:00 +3°C° 0.3 mm 3 mps 721 mmHg 95%
08:00 +2°C° 0.2 mm 3 mps 721 mmHg 94%
09:00 +2°C° 0.2 mm 3 mps 722 mmHg 93%
10:00 +2°C° 0.2 mm 3 mps 722 mmHg 93%
11:00 +2°C° 0.1 mm 3 mps 723 mmHg 92%
12:00 +2°C° 0.1 mm 3 mps 723 mmHg 92%
13:00 +2°C° 0.1 mm 3 mps 724 mmHg 91%
14:00 +2°C° 0.1 mm 3 mps 724 mmHg 89%
15:00 +1°C° 0.1 mm 4 mps 724 mmHg 86%
16:00 +1°C° 0.1 mm 4 mps 725 mmHg 83%
17:00 0°C° 0 mm 4 mps 725 mmHg 83%
18:00 -1°C° 0 mm 4 mps 726 mmHg 83%
19:00 -2°C° 0 mm 5 mps 726 mmHg 83%
20:00 -2°C° 0 mm 5 mps 727 mmHg 82%
21:00 -4°C° 0 mm 5 mps 728 mmHg 81%
22:00 -4°C° 0 mm 5 mps 728 mmHg 80%
23:00 -3°C° 0 mm 4 mps 728 mmHg 80%

6 March, Saturday

Time Temperature Precipitation Wind Pressure Humidity
00:00 -4°C° 0 mm 4 mps 729 mmHg 79%
01:00 -4°C° 0 mm 4 mps 729 mmHg 79%
02:00 -4°C° 0 mm 4 mps 729 mmHg 77%
03:00 -5°C° 0 mm 4 mps 729 mmHg 76%
04:00 -5°C° 0 mm 4 mps 729 mmHg 74%
05:00 -5°C° 0 mm 4 mps 729 mmHg 71%
06:00 -5°C° 0 mm 4 mps 730 mmHg 69%
07:00 -6°C° 0 mm 5 mps 730 mmHg 67%
08:00 -5°C° 0 mm 5 mps 730 mmHg 59%
09:00 -4°C° 0 mm 6 mps 730 mmHg 52%
10:00 -3°C° 0 mm 6 mps 731 mmHg 45%
11:00 -2°C° 0 mm 6 mps 730 mmHg 41%
12:00 -1°C° 0 mm 6 mps 730 mmHg 37%
13:00 +1°C° 0 mm 6 mps 730 mmHg 34%
14:00 +1°C° 0 mm 6 mps 730 mmHg 34%
15:00 +1°C° 0 mm 6 mps 729 mmHg 35%
16:00 +1°C° 0 mm 6 mps 729 mmHg 35%
17:00 0°C° 0 mm 5 mps 729 mmHg 39%
18:00 -1°C° 0 mm 5 mps 729 mmHg 44%
19:00 -3°C° 0 mm 4 mps 729 mmHg 48%
20:00 -4°C° 0 mm 5 mps 729 mmHg 49%
21:00 -4°C° 0 mm 5 mps 729 mmHg 51%
22:00 -5°C° 0 mm 5 mps 729 mmHg 52%
23:00 -5°C° 0 mm 5 mps 729 mmHg 54%
Show more

We Need Your Consent

Meteoprog and our Service Providers may store and access personal data such as cookies, device identifiers or other similar technologies on your device and process such data to personalise content and ads, as well as provide social media features and to analyse the traffic.

  • Store and/or access information on your device

    Cookies, device identifiers or other information can be stored or accessed on your device for the purposes indicated above.

  • Personalised ads and content, ad and content measurement, audience insights, and products development

    Ads and content can be personalised based on a profile. More data can be added to better personalise ads and content. Ad and content performance can be measured. Insights about the audience who saw the ads and content can be derived. Such data can be used to develop or improve user’s experience, systems and software.

By clicking ‘I Agree’ you will allow the use of indicated cookies, device identifiers, web beacons or other similar technologies. Your settings can be changed in the browser on your device.

For certain purposes, legitimate interests may be relied on, rather than consent. You can read more about this in our Privacy and Cookie Policy.